NDL432 CYWK-CYRQ

Flight info

Callsign NDL432
Flight time 2h 3m
Altitude 22000
Route YBC MIVAX SIMTO PESAC
Aircraft PC12/L-V/N

Departure

Time 2026-05-04 21:27
Airport Wabush Airport (CYWK)

Arrival

Time 2026-05-04 23:30
Airport Trois-Rivières Airport (CYRQ)
Time Latitude Longitude Altitude Speed Heading
2026-05-04 21:09 52.92674 -66.87229 1800 ft 0 kts 118°
2026-05-04 21:16 52.92675 -66.87230 1800 ft 0 kts 118°
2026-05-04 21:22 52.92674 -66.87228 1800 ft 1 kts 117°
2026-05-04 21:22 52.92660 -66.87181 1800 ft 8 kts 115°
2026-05-04 21:22 52.92647 -66.87056 1800 ft 14 kts 73°
2026-05-04 21:22 52.92660 -66.86893 1800 ft 13 kts 138°
2026-05-04 21:23 52.92573 -66.86837 1801 ft 15 kts 160°
2026-05-04 21:23 52.92464 -66.86771 1802 ft 18 kts 161°
2026-05-04 21:23 52.92340 -66.86697 1804 ft 21 kts 160°
2026-05-04 21:23 52.92192 -66.86611 1806 ft 23 kts 160°
2026-05-04 21:24 52.92039 -66.86521 1808 ft 25 kts 160°
2026-05-04 21:24 52.91865 -66.86418 1810 ft 28 kts 160°
2026-05-04 21:24 52.91674 -66.86306 1812 ft 30 kts 160°
2026-05-04 21:24 52.91508 -66.86208 1813 ft 15 kts 160°
2026-05-04 21:25 52.91482 -66.86120 1814 ft 11 kts 65°
2026-05-04 21:25 52.91519 -66.86026 1814 ft 10 kts 358°
2026-05-04 21:25 52.91547 -66.86039 1814 ft 0 kts 341°
2026-05-04 21:26 52.91633 -66.86090 1813 ft 34 kts 340°
2026-05-04 21:26 52.91994 -66.86302 1811 ft 74 kts 341°
2026-05-04 21:26 52.92555 -66.86652 1876 ft 92 kts 341°
2026-05-04 21:27 52.93161 -66.87030 2097 ft 95 kts 342°
2026-05-04 21:27 52.93791 -66.87406 2363 ft 98 kts 344°
2026-05-04 21:27 52.94447 -66.87779 2615 ft 101 kts 344°
2026-05-04 21:27 52.95147 -66.88190 2797 ft 113 kts 347°
2026-05-04 21:28 52.95949 -66.88096 3092 ft 122 kts 24°
2026-05-04 21:28 52.96598 -66.87132 3460 ft 134 kts 54°
2026-05-04 21:28 52.96889 -66.85580 3800 ft 151 kts 82°
2026-05-04 21:28 52.96491 -66.83906 4150 ft 171 kts 135°
2026-05-04 21:29 52.95353 -66.83376 4506 ft 178 kts 195°
2026-05-04 21:29 52.94345 -66.84432 4878 ft 171 kts 233°
2026-05-04 21:29 52.93460 -66.85772 5287 ft 175 kts 219°
2026-05-04 21:29 52.92303 -66.86503 5681 ft 183 kts 195°
2026-05-04 21:30 52.91032 -66.86939 6049 ft 188 kts 196°
2026-05-04 21:30 52.89748 -66.87430 6437 ft 191 kts 198°
2026-05-04 21:30 52.88453 -66.87946 6820 ft 192 kts 197°
2026-05-04 21:30 52.87143 -66.88459 7212 ft 194 kts 197°
2026-05-04 21:31 52.84520 -66.89478 7968 ft 196 kts 196°
2026-05-04 21:31 52.83184 -66.89996 8348 ft 198 kts 196°
2026-05-04 21:31 52.81839 -66.90519 8764 ft 199 kts 196°
2026-05-04 21:32 52.80488 -66.91045 9119 ft 201 kts 195°
2026-05-04 21:32 52.79120 -66.91571 9493 ft 201 kts 196°
2026-05-04 21:32 52.77753 -66.92105 9811 ft 203 kts 195°
2026-05-04 21:32 52.76376 -66.92637 10134 ft 203 kts 195°
2026-05-04 21:33 52.75000 -66.93165 10458 ft 203 kts 195°
2026-05-04 21:33 52.73618 -66.93702 10771 ft 203 kts 195°
2026-05-04 21:33 52.72235 -66.94234 11075 ft 205 kts 195°
2026-05-04 21:33 52.70853 -66.94774 11357 ft 204 kts 195°
2026-05-04 21:34 52.69481 -66.95302 11601 ft 206 kts 195°
2026-05-04 21:34 52.68080 -66.95850 11911 ft 205 kts 195°
2026-05-04 21:34 52.66680 -66.96386 12208 ft 207 kts 195°
2026-05-04 21:34 52.65285 -66.96923 12500 ft 207 kts 195°
2026-05-04 21:35 52.63891 -66.97460 12858 ft 204 kts 195°
2026-05-04 21:35 52.62497 -66.97994 13189 ft 206 kts 194°
2026-05-04 21:35 52.61096 -66.98529 13547 ft 207 kts 194°
2026-05-04 21:35 52.59694 -66.99068 13918 ft 207 kts 194°
2026-05-04 21:36 52.58288 -66.99608 14288 ft 207 kts 194°
2026-05-04 21:36 52.56879 -67.00148 14645 ft 208 kts 194°
2026-05-04 21:36 52.55464 -67.00690 15010 ft 209 kts 193°
2026-05-04 21:36 52.54527 -67.01049 15248 ft 209 kts 193°
2026-05-04 21:37 52.53104 -67.01594 15602 ft 210 kts 193°
2026-05-04 21:37 52.51680 -67.02139 15956 ft 210 kts 193°
2026-05-04 21:37 52.49785 -67.02864 16412 ft 211 kts 193°
2026-05-04 21:37 52.48353 -67.03411 16748 ft 212 kts 193°
2026-05-04 21:38 52.47382 -67.03782 16978 ft 212 kts 193°
2026-05-04 21:38 52.45943 -67.04330 17317 ft 213 kts 192°
2026-05-04 21:38 52.44500 -67.04880 17627 ft 213 kts 192°
2026-05-04 21:38 52.43055 -67.05432 17950 ft 213 kts 192°
2026-05-04 21:39 52.41623 -67.05977 18248 ft 214 kts 192°
2026-05-04 21:39 52.40169 -67.06530 18544 ft 215 kts 192°
2026-05-04 21:39 52.38712 -67.07085 18847 ft 215 kts 192°
2026-05-04 21:39 52.37252 -67.07640 19137 ft 216 kts 192°
2026-05-04 21:40 52.35784 -67.08197 19426 ft 217 kts 192°
2026-05-04 21:40 52.34311 -67.08756 19714 ft 217 kts 192°
2026-05-04 21:40 52.32841 -67.09314 19998 ft 217 kts 192°
2026-05-04 21:40 52.31365 -67.09872 20265 ft 218 kts 192°
2026-05-04 21:41 52.29882 -67.10434 20541 ft 219 kts 191°
2026-05-04 21:41 52.28394 -67.10998 20824 ft 219 kts 191°
2026-05-04 21:41 52.26907 -67.11561 21098 ft 220 kts 191°
2026-05-04 21:41 52.25414 -67.12125 21359 ft 221 kts 191°
2026-05-04 21:42 52.23906 -67.12694 21537 ft 226 kts 191°
2026-05-04 21:42 52.22351 -67.13281 21541 ft 238 kts 192°
2026-05-04 21:42 52.20702 -67.13905 21547 ft 247 kts 192°
2026-05-04 21:42 52.19000 -67.14550 21549 ft 254 kts 192°
2026-05-04 21:43 52.17259 -67.15203 21551 ft 259 kts 192°
2026-05-04 21:43 52.15485 -67.15871 21552 ft 263 kts 192°
2026-05-04 21:43 52.13686 -67.16549 21552 ft 267 kts 192°
2026-05-04 21:43 52.11870 -67.17231 21551 ft 269 kts 192°
2026-05-04 21:44 52.10034 -67.17921 21552 ft 271 kts 192°
2026-05-04 21:44 52.08189 -67.18612 21552 ft 272 kts 192°
2026-05-04 21:44 52.06338 -67.19305 21552 ft 273 kts 192°
2026-05-04 21:44 52.04507 -67.19991 21552 ft 274 kts 192°
2026-05-04 21:45 52.02649 -67.20686 21552 ft 274 kts 192°
2026-05-04 21:45 52.00786 -67.21382 21552 ft 275 kts 192°
2026-05-04 21:45 51.98919 -67.22080 21552 ft 275 kts 192°
2026-05-04 21:45 51.97054 -67.22775 21553 ft 275 kts 193°
2026-05-04 21:46 51.95191 -67.23469 21551 ft 275 kts 193°
2026-05-04 21:46 51.93325 -67.24164 21550 ft 275 kts 193°
2026-05-04 21:46 51.91464 -67.24856 21550 ft 274 kts 192°
2026-05-04 21:46 51.89602 -67.25548 21549 ft 274 kts 193°
2026-05-04 21:47 51.87744 -67.26239 21549 ft 274 kts 193°
2026-05-04 21:47 51.85884 -67.26930 21549 ft 274 kts 192°
2026-05-04 21:47 51.84021 -67.27620 21549 ft 274 kts 192°
2026-05-04 21:47 51.82159 -67.28310 21549 ft 274 kts 192°
2026-05-04 21:48 51.80301 -67.28997 21549 ft 274 kts 192°
2026-05-04 21:48 51.78438 -67.29686 21548 ft 274 kts 192°
2026-05-04 21:48 51.76577 -67.30375 21549 ft 275 kts 192°
2026-05-04 21:48 51.74715 -67.31062 21548 ft 274 kts 192°
2026-05-04 21:49 51.72856 -67.31747 21549 ft 274 kts 192°
2026-05-04 21:49 51.71001 -67.32432 21549 ft 274 kts 192°
2026-05-04 21:49 51.69168 -67.33107 21548 ft 273 kts 192°
2026-05-04 21:49 51.67311 -67.33790 21548 ft 273 kts 192°
2026-05-04 21:50 51.65457 -67.34471 21548 ft 273 kts 192°
2026-05-04 21:50 51.63604 -67.35152 21548 ft 273 kts 192°
2026-05-04 21:50 51.61748 -67.35834 21548 ft 273 kts 192°
2026-05-04 21:50 51.59897 -67.36513 21547 ft 273 kts 192°
2026-05-04 21:51 51.58048 -67.37191 21547 ft 273 kts 192°
2026-05-04 21:51 51.56195 -67.37870 21547 ft 273 kts 192°
2026-05-04 21:51 51.54343 -67.38547 21546 ft 273 kts 192°
2026-05-04 21:51 51.52492 -67.39223 21546 ft 273 kts 192°
2026-05-04 21:52 51.50641 -67.39899 21546 ft 273 kts 192°
2026-05-04 21:52 51.48815 -67.40566 21547 ft 273 kts 192°
2026-05-04 21:52 51.46966 -67.41240 21547 ft 273 kts 192°
2026-05-04 21:52 51.45112 -67.41915 21547 ft 273 kts 192°
2026-05-04 21:53 51.43259 -67.42590 21546 ft 273 kts 192°
2026-05-04 21:53 51.41406 -67.43265 21547 ft 273 kts 192°
2026-05-04 21:53 51.39551 -67.43939 21546 ft 273 kts 192°
2026-05-04 21:53 51.37702 -67.44609 21546 ft 273 kts 192°
2026-05-04 21:54 51.35851 -67.45281 21545 ft 273 kts 193°
2026-05-04 21:54 51.33997 -67.45954 21545 ft 272 kts 192°
2026-05-04 21:54 51.32149 -67.46623 21546 ft 272 kts 193°
2026-05-04 21:54 51.30301 -67.47292 21545 ft 273 kts 193°
2026-05-04 21:55 51.28450 -67.47961 21545 ft 272 kts 193°
2026-05-04 21:55 51.26601 -67.48630 21545 ft 272 kts 193°
2026-05-04 21:55 51.24750 -67.49298 21545 ft 272 kts 193°
2026-05-04 21:55 51.22903 -67.49964 21545 ft 272 kts 193°
2026-05-04 21:56 51.21056 -67.50630 21545 ft 272 kts 193°
2026-05-04 21:56 51.19204 -67.51297 21545 ft 272 kts 193°
2026-05-04 21:56 51.17359 -67.51961 21545 ft 272 kts 193°
2026-05-04 21:56 51.15511 -67.52626 21545 ft 272 kts 193°
2026-05-04 21:57 51.13689 -67.53280 21544 ft 272 kts 193°
2026-05-04 21:57 51.11844 -67.53942 21544 ft 272 kts 193°
2026-05-04 21:57 51.09999 -67.54603 21544 ft 272 kts 193°
2026-05-04 21:57 51.08156 -67.55264 21544 ft 272 kts 193°
2026-05-04 21:58 51.06310 -67.55925 21544 ft 272 kts 193°
2026-05-04 21:58 51.04465 -67.56585 21543 ft 272 kts 193°
2026-05-04 21:58 51.02617 -67.57247 21544 ft 272 kts 193°
2026-05-04 21:58 51.00773 -67.57905 21543 ft 272 kts 193°
2026-05-04 21:59 50.98927 -67.58564 21544 ft 272 kts 193°
2026-05-04 21:59 50.97080 -67.59223 21543 ft 272 kts 193°
2026-05-04 21:59 50.95235 -67.59880 21544 ft 272 kts 193°
2026-05-04 21:59 50.93393 -67.60537 21543 ft 271 kts 193°
2026-05-04 22:00 50.91550 -67.61192 21543 ft 271 kts 193°
2026-05-04 22:00 50.89709 -67.61846 21543 ft 271 kts 193°
2026-05-04 22:00 50.87871 -67.62499 21543 ft 271 kts 193°
2026-05-04 22:00 50.86031 -67.63152 21542 ft 271 kts 193°
2026-05-04 22:01 50.84191 -67.63805 21543 ft 271 kts 193°
2026-05-04 22:01 50.82375 -67.64448 21544 ft 271 kts 193°
2026-05-04 22:01 50.80534 -67.65099 21544 ft 271 kts 193°
2026-05-04 22:01 50.78694 -67.65751 21544 ft 271 kts 193°
2026-05-04 22:02 50.76855 -67.66402 21543 ft 271 kts 193°
2026-05-04 22:02 50.75017 -67.67050 21544 ft 271 kts 193°
2026-05-04 22:02 50.73176 -67.67699 21542 ft 270 kts 193°
2026-05-04 22:02 50.71347 -67.68344 21542 ft 269 kts 193°
2026-05-04 22:03 50.69528 -67.68986 21543 ft 267 kts 193°
2026-05-04 22:03 50.67710 -67.69627 21543 ft 267 kts 193°
2026-05-04 22:03 50.65897 -67.70264 21543 ft 267 kts 193°
2026-05-04 22:03 50.64086 -67.70900 21542 ft 266 kts 193°
2026-05-04 22:04 50.62282 -67.71534 21545 ft 266 kts 193°
2026-05-04 22:04 50.60500 -67.72159 21545 ft 265 kts 193°
2026-05-04 22:04 50.58697 -67.72792 21544 ft 265 kts 193°
2026-05-04 22:04 50.56894 -67.73423 21544 ft 265 kts 193°
2026-05-04 22:05 50.55095 -67.74052 21545 ft 265 kts 193°
2026-05-04 22:05 50.53298 -67.74681 21555 ft 264 kts 193°
2026-05-04 22:05 50.51498 -67.75311 21555 ft 265 kts 193°
2026-05-04 22:05 50.49700 -67.75939 21554 ft 265 kts 193°
2026-05-04 22:06 50.47904 -67.76565 21554 ft 265 kts 193°
2026-05-04 22:06 50.46106 -67.77192 21554 ft 264 kts 193°
2026-05-04 22:06 50.44309 -67.77819 21555 ft 264 kts 193°
2026-05-04 22:06 50.42512 -67.78445 21554 ft 265 kts 193°
2026-05-04 22:07 50.40713 -67.79071 21554 ft 264 kts 193°
2026-05-04 22:07 50.38913 -67.79697 21554 ft 264 kts 193°
2026-05-04 22:07 50.37117 -67.80321 21554 ft 264 kts 193°
2026-05-04 22:07 50.35343 -67.80936 21554 ft 264 kts 193°
2026-05-04 22:08 50.33549 -67.81557 21553 ft 264 kts 193°
2026-05-04 22:08 50.31761 -67.82179 21553 ft 264 kts 193°
2026-05-04 22:08 50.29968 -67.82801 21553 ft 264 kts 193°
2026-05-04 22:08 50.28177 -67.83420 21553 ft 264 kts 193°
2026-05-04 22:09 50.26385 -67.84039 21565 ft 263 kts 193°
2026-05-04 22:09 50.24594 -67.84658 21564 ft 263 kts 193°
2026-05-04 22:09 50.22805 -67.85276 21564 ft 263 kts 193°
2026-05-04 22:09 50.21017 -67.85893 21564 ft 263 kts 193°
2026-05-04 22:10 50.19224 -67.86510 21563 ft 263 kts 193°
2026-05-04 22:10 50.17458 -67.87119 21564 ft 263 kts 193°
2026-05-04 22:10 50.15670 -67.87734 21574 ft 263 kts 193°
2026-05-04 22:10 50.13880 -67.88350 21573 ft 263 kts 193°
2026-05-04 22:11 50.12090 -67.88965 21574 ft 263 kts 193°
2026-05-04 22:11 50.10303 -67.89579 21574 ft 263 kts 193°
2026-05-04 22:11 50.08514 -67.90193 21573 ft 263 kts 193°
2026-05-04 22:11 50.06725 -67.90806 21573 ft 263 kts 193°
2026-05-04 22:12 50.04935 -67.91420 21573 ft 263 kts 193°
2026-05-04 22:12 50.03147 -67.92033 21573 ft 263 kts 193°
2026-05-04 22:12 50.01358 -67.92644 21579 ft 263 kts 193°
2026-05-04 22:12 49.99571 -67.93255 21583 ft 263 kts 193°
2026-05-04 22:13 49.97785 -67.93865 21583 ft 263 kts 193°
2026-05-04 22:13 49.96020 -67.94468 21583 ft 263 kts 193°
2026-05-04 22:13 49.94231 -67.95078 21583 ft 263 kts 193°
2026-05-04 22:13 49.92445 -67.95686 21582 ft 263 kts 193°
2026-05-04 22:14 49.90658 -67.96295 21582 ft 263 kts 193°
2026-05-04 22:14 49.88872 -67.96903 21582 ft 262 kts 193°
2026-05-04 22:14 49.87088 -67.97510 21593 ft 262 kts 193°
2026-05-04 22:14 49.85303 -67.98116 21593 ft 262 kts 193°
2026-05-04 22:15 49.83516 -67.98723 21593 ft 262 kts 193°
2026-05-04 22:15 49.81731 -67.99328 21593 ft 263 kts 193°
2026-05-04 22:15 49.79943 -67.99935 21593 ft 263 kts 193°
2026-05-04 22:15 49.78158 -68.00540 21593 ft 263 kts 193°
2026-05-04 22:16 49.76370 -68.01144 21593 ft 263 kts 193°
2026-05-04 22:16 49.74581 -68.01750 21601 ft 262 kts 193°
2026-05-04 22:16 49.72796 -68.02353 21602 ft 262 kts 193°
2026-05-04 22:16 49.71014 -68.02955 21602 ft 262 kts 193°
2026-05-04 22:17 49.69230 -68.03557 21601 ft 262 kts 193°
2026-05-04 22:17 49.67446 -68.04159 21602 ft 262 kts 193°
2026-05-04 22:17 49.65662 -68.04760 21609 ft 262 kts 193°
2026-05-04 22:17 49.63883 -68.05359 21612 ft 262 kts 193°
2026-05-04 22:18 49.62104 -68.05957 21608 ft 262 kts 193°
2026-05-04 22:18 49.60319 -68.06558 21608 ft 262 kts 193°
2026-05-04 22:18 49.58556 -68.07150 21616 ft 262 kts 193°
2026-05-04 22:18 49.56771 -68.07750 21616 ft 263 kts 193°
2026-05-04 22:19 49.54988 -68.08347 21608 ft 262 kts 193°
2026-05-04 22:19 49.53200 -68.08947 21615 ft 262 kts 194°
2026-05-04 22:19 49.51413 -68.09547 21608 ft 262 kts 194°
2026-05-04 22:19 49.49630 -68.10143 21612 ft 262 kts 194°
2026-05-04 22:20 49.47846 -68.10739 21620 ft 262 kts 194°
2026-05-04 22:20 49.46061 -68.11336 21616 ft 262 kts 194°
2026-05-04 22:20 49.44279 -68.11932 21619 ft 262 kts 194°
2026-05-04 22:20 49.42498 -68.12525 21619 ft 262 kts 194°
2026-05-04 22:21 49.40720 -68.13118 21619 ft 262 kts 194°
2026-05-04 22:21 49.38939 -68.13712 21618 ft 262 kts 194°
2026-05-04 22:21 49.37159 -68.14304 21619 ft 262 kts 194°
2026-05-04 22:21 49.35380 -68.14896 21620 ft 262 kts 194°
2026-05-04 22:22 49.33597 -68.15489 21622 ft 262 kts 194°
2026-05-04 22:22 49.31816 -68.16081 21627 ft 262 kts 194°
2026-05-04 22:22 49.30060 -68.16665 21618 ft 261 kts 195°
2026-05-04 22:22 49.28279 -68.17256 21618 ft 261 kts 195°
2026-05-04 22:23 49.26502 -68.17844 21623 ft 261 kts 195°
2026-05-04 22:23 49.24725 -68.18432 21618 ft 261 kts 195°
2026-05-04 22:23 49.22951 -68.19020 21619 ft 261 kts 195°
2026-05-04 22:23 49.21175 -68.19609 21618 ft 261 kts 195°
2026-05-04 22:24 49.19412 -68.20231 21614 ft 258 kts 202°
2026-05-04 22:24 49.17939 -68.21681 21623 ft 251 kts 223°
2026-05-04 22:24 49.16621 -68.23423 21632 ft 251 kts 224°
2026-05-04 22:24 49.15262 -68.25109 21631 ft 252 kts 221°
2026-05-04 22:25 49.13856 -68.26714 21626 ft 252 kts 220°
2026-05-04 22:25 49.12449 -68.28315 21626 ft 253 kts 220°
2026-05-04 22:25 49.11050 -68.29942 21626 ft 253 kts 221°
2026-05-04 22:25 49.10126 -68.31021 21629 ft 253 kts 221°
2026-05-04 22:26 49.08726 -68.32649 21631 ft 253 kts 220°
2026-05-04 22:26 49.06868 -68.34798 21627 ft 253 kts 221°
2026-05-04 22:26 49.05468 -68.36419 21630 ft 253 kts 221°
2026-05-04 22:26 49.04066 -68.38040 21627 ft 253 kts 221°
2026-05-04 22:27 49.03120 -68.39135 21629 ft 252 kts 221°
2026-05-04 22:27 49.01740 -68.40730 21632 ft 252 kts 221°
2026-05-04 22:27 49.00343 -68.42343 21631 ft 252 kts 221°
2026-05-04 22:27 48.98948 -68.43952 21627 ft 251 kts 221°
2026-05-04 22:28 48.97554 -68.45559 21627 ft 251 kts 221°
2026-05-04 22:28 48.96159 -68.47166 21628 ft 251 kts 221°
2026-05-04 22:28 48.94764 -68.48772 21627 ft 252 kts 221°
2026-05-04 22:28 48.93369 -68.50377 21629 ft 251 kts 221°
2026-05-04 22:29 48.91974 -68.51981 21627 ft 251 kts 221°
2026-05-04 22:29 48.90581 -68.53580 21639 ft 250 kts 221°
2026-05-04 22:29 48.89192 -68.55175 21639 ft 250 kts 221°
2026-05-04 22:29 48.87803 -68.56768 21639 ft 250 kts 221°
2026-05-04 22:30 48.86411 -68.58365 21639 ft 250 kts 221°
2026-05-04 22:30 48.85022 -68.59956 21638 ft 250 kts 221°
2026-05-04 22:30 48.83633 -68.61545 21639 ft 250 kts 221°
2026-05-04 22:30 48.82242 -68.63136 21639 ft 250 kts 221°
2026-05-04 22:31 48.80853 -68.64724 21639 ft 250 kts 222°
2026-05-04 22:31 48.79464 -68.66312 21639 ft 250 kts 221°
2026-05-04 22:31 48.78075 -68.67897 21649 ft 250 kts 221°
2026-05-04 22:31 48.76706 -68.69457 21648 ft 249 kts 221°
2026-05-04 22:32 48.75309 -68.71046 21649 ft 254 kts 221°
2026-05-04 22:32 48.73901 -68.72651 21650 ft 253 kts 222°
2026-05-04 22:32 48.72500 -68.74249 21649 ft 252 kts 222°
2026-05-04 22:32 48.71102 -68.75840 21649 ft 251 kts 222°
2026-05-04 22:33 48.69706 -68.77426 21649 ft 251 kts 222°
2026-05-04 22:33 48.68310 -68.79010 21649 ft 250 kts 222°
2026-05-04 22:33 48.66922 -68.80585 21649 ft 248 kts 222°
2026-05-04 22:33 48.65546 -68.82147 21647 ft 246 kts 222°
2026-05-04 22:34 48.64183 -68.83694 21646 ft 244 kts 222°
2026-05-04 22:34 48.62830 -68.85225 21646 ft 242 kts 222°
2026-05-04 22:34 48.61483 -68.86749 21645 ft 241 kts 222°
2026-05-04 22:34 48.60141 -68.88267 21645 ft 241 kts 222°
2026-05-04 22:35 48.58803 -68.89778 21658 ft 239 kts 222°
2026-05-04 22:35 48.57469 -68.91287 21658 ft 240 kts 222°
2026-05-04 22:35 48.56123 -68.92806 21659 ft 242 kts 222°
2026-05-04 22:35 48.54784 -68.94317 21659 ft 244 kts 222°
2026-05-04 22:36 48.53419 -68.95856 21660 ft 245 kts 222°
2026-05-04 22:36 48.52055 -68.97391 21661 ft 246 kts 222°
2026-05-04 22:36 48.50680 -68.98938 21661 ft 247 kts 222°
2026-05-04 22:36 48.49304 -69.00487 21661 ft 247 kts 222°
2026-05-04 22:37 48.47924 -69.02038 21661 ft 248 kts 222°
2026-05-04 22:37 48.46540 -69.03591 21661 ft 248 kts 222°
2026-05-04 22:37 48.45155 -69.05147 21661 ft 248 kts 222°
2026-05-04 22:37 48.43768 -69.06702 21662 ft 248 kts 222°
2026-05-04 22:38 48.42381 -69.08257 21662 ft 249 kts 222°
2026-05-04 22:38 48.40994 -69.09811 21662 ft 249 kts 222°
2026-05-04 22:38 48.39607 -69.11363 21662 ft 249 kts 222°
2026-05-04 22:38 48.38219 -69.12916 21662 ft 249 kts 222°
2026-05-04 22:39 48.36830 -69.14469 21662 ft 249 kts 222°
2026-05-04 22:39 48.35440 -69.16022 21662 ft 249 kts 222°
2026-05-04 22:39 48.34049 -69.17574 21662 ft 249 kts 222°
2026-05-04 22:39 48.32660 -69.19122 21662 ft 249 kts 222°
2026-05-04 22:40 48.31288 -69.20651 21666 ft 248 kts 222°
2026-05-04 22:40 48.29902 -69.22197 21666 ft 248 kts 222°
2026-05-04 22:40 48.28514 -69.23742 21666 ft 248 kts 222°
2026-05-04 22:40 48.27125 -69.25287 21666 ft 249 kts 222°
2026-05-04 22:41 48.25735 -69.26832 21667 ft 249 kts 222°
2026-05-04 22:41 48.24344 -69.28376 21667 ft 249 kts 223°
2026-05-04 22:41 48.22955 -69.29919 21667 ft 249 kts 223°
2026-05-04 22:41 48.21564 -69.31463 21667 ft 249 kts 223°
2026-05-04 22:42 48.20169 -69.33009 21667 ft 250 kts 222°
2026-05-04 22:42 48.18765 -69.34565 21668 ft 252 kts 222°
2026-05-04 22:42 48.17353 -69.36129 21668 ft 253 kts 222°
2026-05-04 22:42 48.15931 -69.37700 21669 ft 254 kts 223°
2026-05-04 22:43 48.14505 -69.39276 21669 ft 255 kts 223°
2026-05-04 22:43 48.13076 -69.40855 21669 ft 255 kts 223°
2026-05-04 22:43 48.11647 -69.42433 21670 ft 256 kts 223°
2026-05-04 22:43 48.10215 -69.44013 21670 ft 256 kts 223°
2026-05-04 22:44 48.08781 -69.45593 21673 ft 256 kts 222°
2026-05-04 22:44 48.07348 -69.47172 21676 ft 256 kts 222°
2026-05-04 22:44 48.05932 -69.48730 21676 ft 256 kts 223°
2026-05-04 22:44 48.04499 -69.50308 21676 ft 256 kts 223°
2026-05-04 22:45 48.03066 -69.51882 21677 ft 255 kts 223°
2026-05-04 22:45 48.00208 -69.55018 21676 ft 255 kts 223°
2026-05-04 22:45 47.98778 -69.56588 21676 ft 255 kts 223°
2026-05-04 22:46 47.97352 -69.58152 21677 ft 254 kts 223°
2026-05-04 22:46 47.95925 -69.59715 21677 ft 254 kts 223°
2026-05-04 22:46 47.94500 -69.61276 21677 ft 254 kts 223°
2026-05-04 22:46 47.93072 -69.62837 21677 ft 254 kts 223°
2026-05-04 22:47 47.91645 -69.64396 21677 ft 254 kts 223°
2026-05-04 22:47 47.90216 -69.65956 21677 ft 255 kts 223°
2026-05-04 22:47 47.88786 -69.67519 21677 ft 255 kts 223°
2026-05-04 22:47 47.87358 -69.69076 21677 ft 254 kts 223°
2026-05-04 22:48 47.85928 -69.70635 21677 ft 255 kts 223°
2026-05-04 22:48 47.84498 -69.72192 21677 ft 255 kts 223°
2026-05-04 22:48 47.83067 -69.73751 21677 ft 254 kts 223°
2026-05-04 22:48 47.81638 -69.75305 21677 ft 255 kts 223°
2026-05-04 22:49 47.80208 -69.76858 21677 ft 255 kts 223°
2026-05-04 22:49 47.78796 -69.78393 21677 ft 255 kts 223°
2026-05-04 22:49 47.77364 -69.79947 21677 ft 255 kts 223°
2026-05-04 22:49 47.75930 -69.81503 21677 ft 255 kts 223°
2026-05-04 22:50 47.74497 -69.83055 21677 ft 255 kts 223°
2026-05-04 22:50 47.73062 -69.84611 21677 ft 255 kts 223°
2026-05-04 22:50 47.71626 -69.86165 21677 ft 255 kts 223°
2026-05-04 22:50 47.70192 -69.87716 21678 ft 255 kts 223°
2026-05-04 22:51 47.68761 -69.89262 21686 ft 255 kts 223°
2026-05-04 22:51 47.67328 -69.90810 21686 ft 255 kts 223°
2026-05-04 22:51 47.65894 -69.92359 21685 ft 255 kts 223°
2026-05-04 22:51 47.64461 -69.93904 21687 ft 255 kts 223°
2026-05-04 22:52 47.63021 -69.95456 21687 ft 255 kts 223°
2026-05-04 22:52 47.61608 -69.96979 21687 ft 255 kts 223°
2026-05-04 22:52 47.60174 -69.98522 21687 ft 255 kts 223°
2026-05-04 22:52 47.58737 -70.00068 21687 ft 255 kts 223°
2026-05-04 22:53 47.57300 -70.01612 21684 ft 255 kts 224°
2026-05-04 22:53 47.55862 -70.03157 21685 ft 255 kts 224°
2026-05-04 22:53 47.54421 -70.04704 21687 ft 256 kts 224°
2026-05-04 22:53 47.52983 -70.06247 21687 ft 256 kts 224°
2026-05-04 22:54 47.51543 -70.07790 21685 ft 255 kts 224°
2026-05-04 22:54 47.50104 -70.09333 21687 ft 255 kts 224°
2026-05-04 22:54 47.48665 -70.10872 21686 ft 255 kts 224°
2026-05-04 22:54 47.47228 -70.12409 21696 ft 255 kts 224°
2026-05-04 22:55 47.45793 -70.13944 21696 ft 254 kts 224°
2026-05-04 22:55 47.44362 -70.15476 21695 ft 253 kts 225°
2026-05-04 22:55 47.43153 -70.17259 21694 ft 243 kts 238°
2026-05-04 22:55 47.42080 -70.19183 21694 ft 243 kts 239°
2026-05-04 22:56 47.41004 -70.21114 21697 ft 244 kts 239°
2026-05-04 22:56 47.39916 -70.23035 21699 ft 244 kts 239°
2026-05-04 22:56 47.38839 -70.24930 21699 ft 244 kts 239°
2026-05-04 22:56 47.37749 -70.26854 21697 ft 244 kts 239°
2026-05-04 22:57 47.36663 -70.28770 21699 ft 243 kts 239°
2026-05-04 22:57 47.35574 -70.30689 21701 ft 243 kts 239°
2026-05-04 22:57 47.34486 -70.32606 21710 ft 244 kts 239°
2026-05-04 22:57 47.33394 -70.34528 21712 ft 244 kts 239°
2026-05-04 22:58 47.32304 -70.36445 21712 ft 244 kts 239°
2026-05-04 22:58 47.31211 -70.38366 21713 ft 244 kts 240°
2026-05-04 22:58 47.30117 -70.40286 21715 ft 244 kts 240°
2026-05-04 22:58 47.29024 -70.42204 21715 ft 244 kts 240°
2026-05-04 22:59 47.27946 -70.44095 21717 ft 244 kts 240°
2026-05-04 22:59 47.26854 -70.46010 21715 ft 244 kts 240°
2026-05-04 22:59 47.25760 -70.47924 21712 ft 244 kts 240°
2026-05-04 22:59 47.24668 -70.49836 21715 ft 244 kts 240°
2026-05-04 23:00 47.23574 -70.51748 21725 ft 243 kts 240°
2026-05-04 23:00 47.22484 -70.53653 21722 ft 244 kts 240°
2026-05-04 23:00 47.21393 -70.55560 21723 ft 243 kts 240°
2026-05-04 23:00 47.20303 -70.57461 21723 ft 243 kts 241°
2026-05-04 23:01 47.19212 -70.59362 21722 ft 243 kts 241°
2026-05-04 23:01 47.18122 -70.61263 21723 ft 243 kts 241°
2026-05-04 23:01 47.17034 -70.63158 21722 ft 242 kts 241°
2026-05-04 23:01 47.15947 -70.65048 21723 ft 242 kts 241°
2026-05-04 23:02 47.14863 -70.66934 21725 ft 242 kts 241°
2026-05-04 23:02 47.13779 -70.68817 21732 ft 241 kts 241°
2026-05-04 23:02 47.12697 -70.70696 21729 ft 241 kts 242°
2026-05-04 23:02 47.11618 -70.72567 21734 ft 239 kts 242°
2026-05-04 23:03 47.10532 -70.74460 21515 ft 246 kts 241°
2026-05-04 23:03 47.09410 -70.76413 21269 ft 254 kts 241°
2026-05-04 23:03 47.08259 -70.78403 21016 ft 257 kts 240°
2026-05-04 23:03 47.07096 -70.80409 20770 ft 259 kts 240°
2026-05-04 23:04 47.05926 -70.82437 20519 ft 260 kts 241°
2026-05-04 23:04 47.04990 -70.84620 20266 ft 251 kts 251°
2026-05-04 23:04 47.04180 -70.86887 20017 ft 251 kts 252°
2026-05-04 23:04 47.03368 -70.89157 19768 ft 252 kts 251°
2026-05-04 23:05 47.02544 -70.91407 19517 ft 249 kts 251°
2026-05-04 23:05 47.01736 -70.93600 19268 ft 246 kts 251°
2026-05-04 23:05 47.00933 -70.95798 19018 ft 243 kts 251°
2026-05-04 23:05 47.00136 -70.97978 18767 ft 242 kts 251°
2026-05-04 23:06 46.99347 -71.00131 18515 ft 237 kts 251°
2026-05-04 23:06 46.98575 -71.02242 18264 ft 234 kts 251°
2026-05-04 23:06 46.97807 -71.04331 18009 ft 232 kts 251°
2026-05-04 23:06 46.97047 -71.06399 17763 ft 230 kts 251°
2026-05-04 23:07 46.96291 -71.08459 17515 ft 229 kts 251°
2026-05-04 23:07 46.95535 -71.10513 17263 ft 229 kts 251°
2026-05-04 23:07 46.94778 -71.12569 17012 ft 230 kts 251°
2026-05-04 23:07 46.94019 -71.14628 16761 ft 230 kts 251°
2026-05-04 23:08 46.93259 -71.16686 16511 ft 230 kts 250°
2026-05-04 23:08 46.92498 -71.18749 16262 ft 230 kts 250°
2026-05-04 23:08 46.91736 -71.20825 16013 ft 234 kts 250°
2026-05-04 23:08 46.90958 -71.22919 15762 ft 234 kts 250°
2026-05-04 23:09 46.90179 -71.25002 15513 ft 233 kts 250°
2026-05-04 23:09 46.89417 -71.27076 15261 ft 230 kts 250°
2026-05-04 23:09 46.88656 -71.29138 15011 ft 230 kts 250°
2026-05-04 23:09 46.87895 -71.31189 14759 ft 229 kts 249°
2026-05-04 23:10 46.87146 -71.33207 14507 ft 228 kts 249°
2026-05-04 23:10 46.86387 -71.35247 14263 ft 229 kts 249°
2026-05-04 23:10 46.85628 -71.37288 14031 ft 229 kts 249°
2026-05-04 23:10 46.84869 -71.39329 13802 ft 228 kts 249°
2026-05-04 23:11 46.84112 -71.41366 13586 ft 228 kts 249°
2026-05-04 23:11 46.83355 -71.43397 13354 ft 227 kts 249°
2026-05-04 23:11 46.82599 -71.45423 13129 ft 227 kts 248°
2026-05-04 23:11 46.81844 -71.47446 12902 ft 227 kts 248°
2026-05-04 23:12 46.81091 -71.49464 12679 ft 226 kts 248°
2026-05-04 23:12 46.80338 -71.51480 12455 ft 226 kts 248°
2026-05-04 23:12 46.79583 -71.53500 12229 ft 227 kts 248°
2026-05-04 23:12 46.78828 -71.55520 12004 ft 227 kts 248°
2026-05-04 23:13 46.78067 -71.57546 11778 ft 227 kts 248°
2026-05-04 23:13 46.77308 -71.59570 11553 ft 228 kts 248°
2026-05-04 23:13 46.76550 -71.61594 11328 ft 227 kts 247°
2026-05-04 23:13 46.75791 -71.63614 11103 ft 227 kts 247°
2026-05-04 23:14 46.75044 -71.65604 10881 ft 227 kts 247°
2026-05-04 23:14 46.74283 -71.67625 10655 ft 227 kts 246°
2026-05-04 23:14 46.73525 -71.69644 10429 ft 227 kts 246°
2026-05-04 23:14 46.72764 -71.71666 10203 ft 228 kts 246°
2026-05-04 23:15 46.72001 -71.73688 9964 ft 228 kts 246°
2026-05-04 23:15 46.71238 -71.75717 9714 ft 228 kts 245°
2026-05-04 23:15 46.70469 -71.77752 9464 ft 229 kts 245°
2026-05-04 23:15 46.69700 -71.79782 9211 ft 229 kts 245°
2026-05-04 23:16 46.69182 -71.81155 9044 ft 229 kts 245°
2026-05-04 23:16 46.68423 -71.83163 8797 ft 230 kts 244°
2026-05-04 23:16 46.67653 -71.85203 8543 ft 230 kts 244°
2026-05-04 23:16 46.66881 -71.87241 8296 ft 230 kts 244°
2026-05-04 23:17 46.66109 -71.89274 8049 ft 229 kts 244°
2026-05-04 23:17 46.65341 -71.91297 7825 ft 228 kts 244°
2026-05-04 23:17 46.64576 -71.93318 7600 ft 228 kts 244°
2026-05-04 23:17 46.63812 -71.95329 7377 ft 226 kts 244°
2026-05-04 23:18 46.63053 -71.97323 7149 ft 225 kts 244°
2026-05-04 23:18 46.62301 -71.99301 6922 ft 222 kts 244°
2026-05-04 23:18 46.61553 -72.01265 6697 ft 221 kts 243°
2026-05-04 23:18 46.60813 -72.03206 6468 ft 218 kts 243°
2026-05-04 23:19 46.60086 -72.05116 6263 ft 213 kts 243°
2026-05-04 23:19 46.59373 -72.06981 6062 ft 209 kts 243°
2026-05-04 23:19 46.58672 -72.08821 5864 ft 207 kts 243°
2026-05-04 23:19 46.57984 -72.10627 5688 ft 202 kts 243°
2026-05-04 23:20 46.57305 -72.12403 5512 ft 200 kts 243°
2026-05-04 23:20 46.56634 -72.14155 5337 ft 197 kts 243°
2026-05-04 23:20 46.55973 -72.15884 5158 ft 195 kts 243°
2026-05-04 23:20 46.55315 -72.17600 4984 ft 194 kts 243°
2026-05-04 23:21 46.54658 -72.19309 4809 ft 193 kts 243°
2026-05-04 23:21 46.53988 -72.20999 4633 ft 193 kts 242°
2026-05-04 23:21 46.53321 -72.22679 4457 ft 191 kts 242°
2026-05-04 23:21 46.52657 -72.24353 4284 ft 191 kts 242°
2026-05-04 23:22 46.51993 -72.26028 4107 ft 191 kts 242°
2026-05-04 23:22 46.51326 -72.27704 3931 ft 192 kts 242°
2026-05-04 23:22 46.50885 -72.28812 3816 ft 191 kts 242°
2026-05-04 23:22 46.50805 -72.29012 3794 ft 191 kts 242°
2026-05-04 23:23 46.50162 -72.30628 3622 ft 191 kts 241°
2026-05-04 23:23 46.49496 -72.32298 3451 ft 191 kts 241°
2026-05-04 23:23 46.48829 -72.33971 3274 ft 192 kts 241°
2026-05-04 23:23 46.48160 -72.35649 3099 ft 192 kts 241°
2026-05-04 23:24 46.47490 -72.37328 2925 ft 192 kts 241°
2026-05-04 23:24 46.46819 -72.39008 2751 ft 192 kts 240°
2026-05-04 23:24 46.46148 -72.40686 2573 ft 193 kts 240°
2026-05-04 23:24 46.45475 -72.42370 2398 ft 193 kts 240°
2026-05-04 23:25 46.44799 -72.44060 2201 ft 194 kts 239°
2026-05-04 23:25 46.44121 -72.45755 2001 ft 194 kts 239°
2026-05-04 23:25 46.43454 -72.47421 1816 ft 191 kts 239°
2026-05-04 23:25 46.42814 -72.49023 1635 ft 174 kts 239°
2026-05-04 23:26 46.42231 -72.50479 1484 ft 161 kts 238°
2026-05-04 23:26 46.41675 -72.51859 1354 ft 157 kts 238°
2026-05-04 23:26 46.41118 -72.53238 1243 ft 158 kts 238°
2026-05-04 23:26 46.40589 -72.54565 1213 ft 145 kts 239°
2026-05-04 23:27 46.40136 -72.55822 1193 ft 138 kts 243°
2026-05-04 23:27 46.39750 -72.57068 1194 ft 133 kts 244°
2026-05-04 23:27 46.39378 -72.58292 1160 ft 132 kts 246°
2026-05-04 23:27 46.39060 -72.59524 1175 ft 129 kts 248°
2026-05-04 23:28 46.38770 -72.60715 1143 ft 123 kts 249°
2026-05-04 23:28 46.38510 -72.61828 1113 ft 110 kts 251°
2026-05-04 23:28 46.38314 -72.62828 998 ft 98 kts 250°
2026-05-04 23:28 46.38120 -72.63745 818 ft 92 kts 250°
2026-05-04 23:29 46.37906 -72.64587 696 ft 87 kts 244°
2026-05-04 23:29 46.37628 -72.65347 602 ft 85 kts 236°
2026-05-04 23:29 46.37270 -72.66028 496 ft 85 kts 225°
2026-05-04 23:29 46.36823 -72.66577 366 ft 85 kts 212°
2026-05-04 23:30 46.36325 -72.67017 243 ft 82 kts 210°
2026-05-04 23:30 46.35884 -72.67405 205 ft 65 kts 212°
2026-05-04 23:30 46.35646 -72.67627 202 ft 21 kts 227°
2026-05-04 23:30 46.35641 -72.67613 202 ft 14 kts 23°
2026-05-04 23:31 46.35714 -72.67543 202 ft 14 kts 18°
2026-05-04 23:31 46.35816 -72.67468 204 ft 19 kts 31°
2026-05-04 23:31 46.35941 -72.67368 205 ft 21 kts 13°
2026-05-04 23:31 46.36059 -72.67422 204 ft 14 kts 333°
2026-05-04 23:32 46.36136 -72.67483 204 ft 13 kts 330°
2026-05-04 23:32 46.36200 -72.67535 204 ft 9 kts
2026-05-04 23:32 46.36228 -72.67499 204 ft 3 kts 114°
2026-05-04 23:32 46.36216 -72.67497 204 ft 1 kts 287°
2026-05-04 23:33 46.36217 -72.67500 204 ft 0 kts 300°
2026-05-04 23:33 46.36217 -72.67499 204 ft 0 kts 300°